CDT,Max TemperatureF,Mean TemperatureF,Min TemperatureF,Max Dew PointF,MeanDew PointF,Min DewpointF,Max Humidity, Mean Humidity, Min Humidity, Max Sea Level PressureIn, Mean Sea Level PressureIn, Min Sea Level PressureIn, Max VisibilityMiles, Mean VisibilityMiles, Min VisibilityMiles, Max Wind SpeedMPH, Mean Wind SpeedMPH, Max Gust SpeedMPH,PrecipitationIn, CloudCover, Events, WindDirDegrees
2013-6-1,78,71,64,66,59,52,78,69,57,29.95,29.86,29.73,10,9,3,23,6,34,0.01,4,Thunderstorm,213
2013-6-2,71,63,55,54,51,48,77,62,49,30.03,30.00,29.96,10,10,9,13,5,18,0.00,5,,333
2013-6-3,77,67,57,54,51,48,77,60,41,30.07,30.00,29.94,10,10,5,6,2,,0.00,3,,73
2013-6-4,80,68,55,57,53,48,77,63,44,30.03,29.98,29.93,10,10,5,8,2,,0.00,0,,87
2013-6-5,80,70,60,63,58,54,77,64,51,29.98,29.91,29.83,10,9,3,12,2,17,0.00,2,,330
2013-6-6,78,70,62,57,55,54,73,60,44,29.91,29.89,29.85,10,10,10,10,5,,0.00,3,,332
2013-6-7,78,68,57,54,51,48,72,56,34,29.96,29.92,29.89,10,10,10,9,4,16,0.00,2,,341
2013-6-8,82,68,53,55,51,46,77,56,32,29.98,29.93,29.88,10,10,8,8,2,,0.00,1,,155
2013-6-9,80,70,60,64,57,52,73,65,42,29.93,29.88,29.83,10,10,5,15,2,,0.00,1,Thunderstorm,272
2013-6-10,93,76,60,63,58,52,77,52,32,29.92,29.87,29.84,10,10,8,15,5,24,0.00,1,,248
2013-6-11,98,81,64,64,61,57,78,53,27,30.01,29.96,29.92,10,10,7,13,2,17,0.00,0,,215
2013-6-12,93,80,68,66,64,61,78,54,36,30.00,29.95,29.89,10,10,8,20,6,28,0.00,0,,223
2013-6-13,89,82,73,66,62,57,65,52,37,30.01,29.96,29.91,10,10,10,12,5,,0.00,0,,338
2013-6-14,87,76,64,63,60,55,77,57,40,30.07,30.02,29.97,10,10,9,7,2,,0.00,0,,111
2013-6-15,87,76,64,66,61,55,77,58,40,30.05,30.02,29.95,10,10,5,9,2,,0.00,0,,117
2013-6-16,89,79,68,66,63,57,78,63,43,30.03,29.98,29.92,10,10,3,9,2,18,0.00,2,Thunderstorm,237
2013-6-17,78,72,66,64,61,57,83,71,57,29.99,29.93,29.87,10,10,3,13,3,22,0.00,3,,28
2013-6-18,84,74,64,64,60,57,78,63,45,30.03,29.98,29.93,10,10,6,7,2,,0.00,1,,11
2013-6-19,89,76,62,63,59,55,77,59,36,30.07,30.02,29.99,10,10,7,7,1,,0.00,0,,116
2013-6-20,89,78,66,64,62,57,78,58,40,30.11,30.07,30.03,10,10,6,9,2,,0.00,0,,144
2013-6-21,91,81,71,68,65,61,69,58,43,30.12,30.08,30.03,10,10,6,9,2,,0.00,0,,156
2013-6-22,91,82,73,68,65,63,73,60,41,30.11,30.05,29.99,10,10,3,8,3,17,0.00,0,Thunderstorm,150
2013-6-23,91,80,69,66,64,61,73,59,41,30.05,30.01,29.96,10,10,4,12,2,17,0.00,0,,160
2013-6-24,91,81,71,66,65,63,73,56,41,30.09,30.03,29.98,10,9,5,10,3,,0.00,0,,180
2013-6-25,91,81,71,66,64,63,73,55,41,30.01,29.96,29.88,10,10,7,12,5,18,0.00,1,,186
2013-6-26,96,86,75,70,67,63,69,53,39,29.91,29.88,29.84,10,10,10,17,6,24,0.00,0,,207
2013-6-27,102,88,73,70,68,64,73,53,31,29.96,29.91,29.87,10,10,7,10,4,17,0.00,0,,287
2013-6-28,95,84,73,70,61,54,65,47,28,29.91,29.85,29.79,10,10,8,13,6,21,0.00,1,Thunderstorm,323
2013-6-29,87,74,62,55,52,48,72,42,27,29.85,29.80,29.76,10,10,10,17,5,24,0.00,1,,320
2013-6-30,80,73,66,55,54,52,64,53,39,29.93,29.87,29.80,10,10,10,13,7,20,0.00,4,,341